Location: Unspecified
(38.2970°N, 0.0000°E)
Time: 19:52:43
(UTC+00:00)

FENGYUN 1C DEB - Visible Passes

Search period start: 04 April 2026 00:00
Search period end: 14 April 2026 00:00
Orbit: 815 x 955 km, 99.4° (Epoch: 29 March)

Date Brightness Start Highest point End Pass type
(mag) Time Alt. Az. Time Alt. Az. Time Alt. Az.
4 Apr ? 01:07:54 10° N 01:09:20 17° N 01:09:20 17° N visible
5 Apr ? 01:06:03 10° N 01:07:35 18° N 01:07:35 18° N visible
6 Apr ? 01:04:12 10° N 01:05:50 19° N 01:05:50 19° N visible
7 Apr ? 01:02:21 10° N 01:04:05 19° N 01:04:05 19° N visible
8 Apr ? 01:00:30 10° N 01:02:19 20° N 01:02:19 20° N visible
9 Apr ? 00:58:40 10° N 01:00:33 20° N 01:00:33 20° N visible
10 Apr ? 00:56:48 10° N 00:58:47 21° N 00:58:47 21° N visible
11 Apr ? 00:54:57 10° N 00:57:01 22° N 00:57:01 22° N visible
12 Apr ? 00:53:07 10° N 00:55:14 23° N 00:55:14 23° N visible
13 Apr ? 00:51:15 10° N 00:53:27 23° N 00:53:27 23° N visible
